Overview Statistics Trail Chart Weather Telemetry Raw packets
 

This is the latest recevied weather packets stored in our database for station/object HB9FHL-13. If no packets are shown the sender has not sent any weather packets the latest 10 day(s).

<< 100 101 102 103 104 105 106 >>
Time Temp. Humidity Pressure Rain* Wind** Luminosity Snow
1788029071 19.44° C - 1019.6 hPa 0 mm - - -
1788028769 19.44° C - 1015.7 hPa 0 mm - - -
1788028465 20° C - 1012.9 hPa 0 mm - - -
1788028164 20° C - 1015.4 hPa 0 mm - - -
1788027864 18.89° C - 1015 hPa 0 mm - - -
1788027563 18.89° C - 1019.8 hPa 0 mm - - -
1788027263 19.44° C - 1018.7 hPa 0 mm - - -
1788026962 19.44° C - 1019.2 hPa 0 mm - - -
1788026700 20° C - 1015.8 hPa 0 mm - - -
1788026662 20° C - 1015.8 hPa 0 mm - - -
1788026363 19.44° C - 1017.8 hPa 0 mm - - -
1788026058 20° C - 1020.1 hPa 0 mm - - -
1788025812 20.56° C - 1016.3 hPa 0 mm - - -
1788025758 20.56° C - 1016.3 hPa 0 mm - - -
1788025468 20° C - 1019.3 hPa 0 mm - - -
1788025157 20.56° C - 1018.1 hPa 0 mm - - -
1788024856 21.11° C - 1016.1 hPa 0 mm - - -
1788024556 21.11° C - 1018.4 hPa 0 mm - - -
1788024298 20.56° C - 1016.6 hPa 0 mm - - -
1788024255 20.56° C - 1016.6 hPa 0 mm - - -
1788023955 20.56° C - 1017.2 hPa 0 mm - - -
1788023695 20.56° C - 1019.3 hPa 0 mm - - -
1788023654 20.56° C - 1019.3 hPa 0 mm - - -
1788023389 21.11° C - 1017.7 hPa 0 mm - - -
1788023354 21.11° C - 1017.7 hPa 0 mm - - -

* Rain since midnight (hover to see other rain measurements)
** Current wind speed in m/s (hover to see current wind gust speed)